TimeMST,TemperatureF,Dew PointF,Humidity,Sea Level PressureIn,VisibilityMPH,Wind Direction,Wind SpeedMPH,Gust SpeedMPH,PrecipitationIn,Events,Conditions,WindDirDegrees,DateUTC
12:53 AM,26.1,12.9,58,29.89,10.0,SSW,6.9,-,N/A,,Clear,210,2014-02-17 07:53:00
1:53 AM,24.1,12.0,60,29.89,10.0,ENE,4.6,-,N/A,,Clear,60,2014-02-17 08:53:00
2:53 AM,24.1,12.9,62,29.92,10.0,WSW,6.9,-,N/A,,Clear,240,2014-02-17 09:53:00
3:53 AM,25.0,12.9,60,29.94,10.0,SSW,5.8,-,N/A,,Clear,210,2014-02-17 10:53:00
4:53 AM,25.0,12.0,58,29.95,10.0,WNW,8.1,-,N/A,,Clear,300,2014-02-17 11:53:00
5:53 AM,32.0,6.1,34,29.93,10.0,Variable,4.6,-,N/A,,Clear,0,2014-02-17 12:53:00
6:18 AM,34.0,8.1,34,29.86,10.0,North,8.1,20.7,N/A,,Clear,350,2014-02-17 13:18:00
6:53 AM,37.0,7.0,29,29.88,10.0,WSW,11.5,-,N/A,,Clear,250,2014-02-17 13:53:00
7:53 AM,33.1,9.0,37,29.91,10.0,East,8.1,-,N/A,,Clear,80,2014-02-17 14:53:00
8:53 AM,36.0,12.0,37,29.87,10.0,SSE,11.5,-,N/A,,Clear,160,2014-02-17 15:53:00
9:53 AM,39.9,10.0,29,29.84,10.0,South,25.3,32.2,N/A,,Clear,190,2014-02-17 16:53:00
10:02 AM,39.0,12.9,34,29.81,10.0,South,18.4,-,N/A,,Clear,190,2014-02-17 17:02:00
10:53 AM,46.0,12.0,25,29.79,10.0,SW,23.0,31.1,N/A,,Clear,230,2014-02-17 17:53:00
11:53 AM,48.9,12.9,24,29.75,10.0,South,20.7,26.5,N/A,,Clear,170,2014-02-17 18:53:00
12:53 PM,52.0,6.1,16,29.71,10.0,East,3.5,-,N/A,,Clear,100,2014-02-17 19:53:00
1:53 PM,51.1,10.9,20,29.68,10.0,West,18.4,28.8,N/A,,Clear,280,2014-02-17 20:53:00
2:53 PM,50.0,12.9,23,29.67,10.0,WSW,24.2,35.7,N/A,,Clear,250,2014-02-17 21:53:00
3:53 PM,48.9,12.9,24,29.67,10.0,WSW,24.2,31.1,N/A,,Clear,240,2014-02-17 22:53:00
4:53 PM,48.0,10.9,22,29.65,10.0,West,16.1,27.6,N/A,,Clear,260,2014-02-17 23:53:00
5:53 PM,45.0,12.0,26,29.63,10.0,South,12.7,-,N/A,,Partly Cloudy,170,2014-02-18 00:53:00
6:53 PM,45.0,10.9,25,29.62,10.0,SSW,11.5,-,N/A,,Clear,210,2014-02-18 01:53:00
7:53 PM,42.1,10.9,28,29.64,10.0,Variable,4.6,-,N/A,,Clear,0,2014-02-18 02:53:00
8:53 PM,43.0,10.9,27,29.62,10.0,SSE,12.7,21.9,N/A,,Clear,150,2014-02-18 03:53:00
9:53 PM,41.0,9.0,27,29.62,10.0,SSW,8.1,-,N/A,,Clear,200,2014-02-18 04:53:00
10:53 PM,45.0,6.1,20,29.59,10.0,North,-9999.0,-,N/A,,Clear,0,2014-02-18 05:53:00
11:53 PM,41.0,9.0,27,29.60,10.0,SW,4.6,-,N/A,,Partly Cloudy,220,2014-02-18 06:53:00